NOAA NWS Hourly Roundups by Site

Regional Weather Roundup for Bismarck, ND

To Select Another Site Choose from List

Select Site:  

000
ASUS43 KBIS 090610
RWRBIS

NWR BROADCAST TEXT
NATIONAL WEATHER SERVICE BISMARCK ND
1200 AM CST THU DEC 09 2021

NOTE: "FAIR" INDICATES FEW OR NO CLOUDS BELOW 12,000 FEET WITH NO
SIGNIFICANT WEATHER AND/OR OBSTRUCTIONS TO VISIBILITY.


CITY           SKY/WX    TMP DP  RH WIND       PRES   REMARKS
WILLISTON      MOCLDY    33  26  75 NW12      29.30R
MINOT          PTCLDY    38  29  70 SW14      29.26R
MINOT AFB      NOT AVBL
BISMARCK       MOCLDY    27  24  89 SE3       29.36F
DICKINSON      CLOUDY    38  30  73 W10       29.33R
GARRISON         N/A     34  30  85 SW6       29.30R
HETTINGER ARPT CLOUDY    39  30  70 W9        29.39R
JAMESTOWN      MOCLDY    25  20  81 S17       29.38F WCI  12
CARRINGTON     CLOUDY    27  23  86 S15       29.37F WCI  15
HAZEN          CLOUDY    37  32  81 NW6       29.33R
MANDAN         CLOUDY    28  27  93 S13       29.34F WCI  18
OAKES          FAIR      21  19  93 E12       29.43F WCI   9
RUGBY          FAIR      30  27  86 S15       29.26F WCI  19
STANLEY        MOCLDY    34  32  93 W18       29.27S
TIOGA          CLOUDY    34  32  93 W14       29.29R
WATFORD CITY     N/A     36  32  87 SW7       29.33R
$$

CITY           SKY/WX    TMP DP  RH WIND       PRES   REMARKS
GRAND FORKS    CLOUDY    22  16  78 S23G30    29.47F WCI   6
GRAND FORKS AF CLOUDY    21  17  83 S23       29.45S WCI   5
DEVILS LAKE    CLOUDY    25  21  85 S22       29.34F WCI  10
FARGO          MOCLDY    23  15  71 SE18G36   29.48F WCI   9
CAVALIER       CLOUDY    21  21 100 S24       29.38F WCI   4
GRAFTON        FAIR      23  19  86 S26G36    29.45F WCI   6
GWINNER        CLEAR     19  19 100 SE18      29.46S WCI   4
LANGDON        CLOUDY    23  23 100 S28G36    29.31F FOG     WCI   6
ROLLA          CLOUDY    25  25 100 S16       29.25F WCI  12
WALHALLA       CLOUDY    23  23 100 SE15G24   29.37F WCI  10
$$

CITY           SKY/WX    TMP DP  RH WIND       PRES   REMARKS
ABERDEEN       MOCLDY    31  22  69 S9        29.40F
MOBRIDGE       MOCLDY    32  23  69 SE3       29.34S
BUFFALO          N/A     45  33  63 NW31G41   29.38R
RAPID CITY     CLOUDY    35  23  61 NW3       29.36S
GLASGOW        CLEAR     33  26  75 NW16      29.38R
SIDNEY         CLOUDY    40  30  67 W18       29.34R
WOLF POINT     CLEAR     35  28  75 W16G23    29.36R
GLENDIVE       MOCLDY    36  31  82 W12       29.39R
MILES CITY     PTCLDY    34  29  82 NW6       29.45R
BAKER          RAIN      39  32  76 W15G31    29.42R
$$

CITY           SKY/WX    TMP DP  RH WIND       PRES   REMARKS
BILLINGS       MOCLDY    37  22  54 W12       29.50R
GREAT FALLS    PTCLDY    28  19  69 W21       29.55R WCI  15
REGINA         CLOUDY    30  25  80 NW22G32   29.26R WCI  17
ESTEVAN        PTCLDY    28  25  86 W18G24    29.26R WCI  16
$$



 

View Past Reports for Bismarck, ND.

Products Courtesy of NOAA-NWS
NWS Information Parsing Script by Ken True at Saratoga Weather - Script by SE Lincoln Weather.